Centralia, IL

10:45 AM CDT on April 21, 2018 (GMT -0500)
Centralia Municipal

Weather History for KENL - February, 2014

Change the Weather History Date:

Thursday, February 6, 2014

  Actual Average (KSLO) Record (KSLO)
Temperature  
Mean Temperature 2 °F -  
Max Temperature 11 °F 36 °F 62 °F (2017)
Min Temperature -6 °F 20 °F -7 °F (1982)
Degree Days  
Heating Degree Days 62    
Moisture  
Dew Point -2 °F    
Average Humidity 69    
Maximum Humidity 81    
Minimum Humidity 53    
Precipitation  
Precipitation 0.00 in - - ()
Sea Level Pressure  
Sea Level Pressure 30.53 in    
Wind  
Wind Speed 8 mph (NW)    
Max Wind Speed 14 mph    
Max Gust Speed 17 mph    
Visibility 10 miles    
Events Snow    
Averages and records for this station are not official NWS values.
T = Trace of Precipitation, MM = Missing Value Source: NWS Daily Summary

Daily Weather History Graph

Daily Weather History Graph

Search for Another Location

Airport or City:

Astronomy

Feb. 06, 2014 Rise Set
Actual Time 6:57 AM CST 5:24 PM CST
Civil Twilight 6:29 AM CST 5:51 PM CST
Nautical Twilight 5:57 AM CST 6:23 PM CST
Astronomical Twilight 5:27 AM CST 6:54 PM CST
Moon 10:56 AM CST (2/6) 12:12 AM CST (2/6)
Length of Visible Light 11h 22m
Length of Day
10h 27m
Waxing Crescent, 49% of the Moon is Illuminated
Feb 6
Waxing Crescent
Feb 6
First Quarter
Feb 14
Full
Feb 22
Last Quarter
Mar 1
New

Hourly Weather History & Observations

Time (CST) Temp. Windchill Dew Point Humidity Pressure Visibility Wind Dir Wind Speed Gust Speed Precip Events Conditions
12:15 AM 11.3 °F -2.9 °F 5.0 °F 76% 30.53 in 10.0 mi NW 11.5 mph - N/A   Overcast
12:33 AM 10.4 °F -1.5 °F 5.0 °F 79% 30.54 in 10.0 mi NW 8.1 mph - N/A   Overcast
12:35 AM 11.3 °F -1.3 °F 5.0 °F 76% 30.54 in 10.0 mi NW 9.2 mph - N/A   Overcast
12:55 AM 11.3 °F -0.4 °F 5.4 °F 77% 30.54 in 10.0 mi NW 8.1 mph - N/A Snow Light Snow
1:15 AM 11.3 °F -0.4 °F 5.5 °F 78% 30.53 in 10.0 mi NW 8.1 mph - N/A Snow Light Snow
1:33 AM 10.4 °F -2.4 °F 5.0 °F 79% 30.51 in 7.0 mi NNW 9.2 mph - N/A Snow Light Snow
1:35 AM 11.1 °F -1.6 °F 5.4 °F 78% 30.51 in 7.0 mi NW 9.2 mph - N/A Snow Light Snow
1:55 AM 10.4 °F -4.1 °F 4.6 °F 78% 30.52 in 10.0 mi NNW 11.5 mph - N/A Snow Light Snow
2:15 AM 10.4 °F -2.4 °F 4.3 °F 76% 30.52 in 10.0 mi NW 9.2 mph - N/A Snow Light Snow
2:35 AM 10.2 °F -0.6 °F 4.5 °F 78% 30.51 in 10.0 mi NW 6.9 mph - N/A Snow Light Snow
2:55 AM 10.2 °F -2.7 °F 4.6 °F 78% 30.51 in 7.0 mi NW 9.2 mph - N/A Snow Light Snow
3:15 AM 9.9 °F -3.1 °F 4.1 °F 78% 30.52 in 10.0 mi NW 9.2 mph - N/A   Overcast
3:35 AM 9.5 °F -5.2 °F 3.2 °F 76% 30.51 in 10.0 mi NW 11.5 mph - N/A   Overcast
3:55 AM 9.5 °F -4.4 °F 3.2 °F 76% 30.52 in 10.0 mi NW 10.4 mph - N/A Snow Light Snow
4:15 AM 9.3 °F -5.4 °F 3.0 °F 76% 30.52 in 10.0 mi NW 11.5 mph - N/A Snow Light Snow
4:35 AM 8.8 °F -4.4 °F 2.8 °F 77% 30.52 in 10.0 mi NW 9.2 mph - N/A Snow Light Snow
4:55 AM 8.6 °F -5.5 °F 2.3 °F 76% 30.53 in 10.0 mi NW 10.4 mph - N/A Snow Light Snow
5:15 AM 8.1 °F -6.2 °F 1.4 °F 74% 30.54 in 10.0 mi NW 10.4 mph - N/A Snow Light Snow
5:35 AM 7.7 °F -4.8 °F 0.9 °F 74% 30.54 in 10.0 mi NW 8.1 mph - N/A Snow Light Snow
5:55 AM 7.5 °F -6.9 °F 0.3 °F 72% 30.55 in 10.0 mi NW 10.4 mph - N/A   Overcast
6:15 AM 7.3 °F -4.1 °F 0.1 °F 72% 30.56 in 10.0 mi WNW 6.9 mph - N/A   Overcast
6:35 AM 6.8 °F -5.9 °F -0.6 °F 72% 30.55 in 10.0 mi NW 8.1 mph - N/A   Overcast
6:55 AM 6.6 °F -8.8 °F -1.5 °F 69% 30.56 in 10.0 mi WNW 11.5 mph - N/A   Overcast
7:15 AM 5.2 °F -6.7 °F -2.6 °F 70% 30.56 in 10.0 mi NW 6.9 mph - N/A   Mostly Cloudy
7:35 AM 4.1 °F -11.1 °F -3.1 °F 72% 30.57 in 10.0 mi WNW 10.4 mph - N/A   Clear
7:55 AM 3.6 °F -12.6 °F -4.0 °F 71% 30.58 in 10.0 mi WNW 11.5 mph - N/A   Clear
8:15 AM 3.7 °F -12.4 °F -3.8 °F 71% 30.59 in 10.0 mi WNW 11.5 mph - N/A   Clear
8:35 AM 3.9 °F -10.4 °F -4.0 °F 70% 30.59 in 10.0 mi NW 9.2 mph - N/A   Clear
8:55 AM 3.7 °F -10.6 °F -4.2 °F 70% 30.60 in 10.0 mi WNW 9.2 mph - N/A   Clear
9:15 AM 3.9 °F -9.4 °F -4.2 °F 69% 30.61 in 10.0 mi WNW 8.1 mph - N/A   Clear
9:35 AM 5.0 °F -8.1 °F -3.5 °F 68% 30.61 in 10.0 mi NW 8.1 mph - N/A   Clear
9:55 AM 5.5 °F -6.3 °F -3.6 °F 66% 30.60 in 10.0 mi WNW 6.9 mph - N/A   Clear
10:15 AM 6.6 °F -5.0 °F -2.7 °F 66% 30.60 in 10.0 mi WNW 6.9 mph - N/A   Clear
10:35 AM 6.8 °F -5.9 °F -3.1 °F 64% 30.60 in 10.0 mi West 8.1 mph - N/A   Clear
10:55 AM 7.2 °F -8.1 °F -3.6 °F 61% 30.59 in 10.0 mi WNW 11.5 mph - N/A   Clear
11:15 AM 7.0 °F -7.5 °F -4.2 °F 60% 30.59 in 10.0 mi WNW 10.4 mph - N/A   Clear
11:35 AM 7.5 °F -7.7 °F -4.2 °F 59% 30.58 in 10.0 mi West 11.5 mph - N/A   Clear
11:55 AM 7.7 °F -8.2 °F -3.5 °F 60% 30.58 in 10.0 mi West 12.7 mph 16.1 mph N/A   Clear
12:15 PM 7.5 °F -9.1 °F -3.6 °F 60% 30.56 in 10.0 mi WNW 13.8 mph 17.3 mph N/A   Clear
12:35 PM 8.1 °F -8.4 °F -3.6 °F 59% 30.55 in 10.0 mi West 13.8 mph 17.3 mph N/A   Clear
12:55 PM 8.2 °F -7.5 °F -3.5 °F 59% 30.54 in 10.0 mi West 12.7 mph - N/A   Clear
1:15 PM 8.4 °F -5.7 °F -3.8 °F 58% 30.53 in 10.0 mi NW 10.4 mph - N/A   Clear
1:35 PM 8.8 °F -6.1 °F -3.8 °F 57% 30.53 in 10.0 mi WNW 11.5 mph - N/A   Clear
1:55 PM 8.6 °F -5.5 °F -4.0 °F 57% 30.53 in 10.0 mi WNW 10.4 mph - N/A   Clear
2:15 PM 9.3 °F -5.4 °F -4.0 °F 55% 30.51 in 10.0 mi NNW 11.5 mph - N/A   Clear
2:35 PM 9.3 °F -4.6 °F -4.0 °F 55% 30.51 in 10.0 mi NW 10.4 mph - N/A   Clear
2:55 PM 10.0 °F -3.7 °F -4.2 °F 53% 30.51 in 10.0 mi NW 10.4 mph - N/A   Scattered Clouds
3:15 PM 9.5 °F -3.5 °F -4.7 °F 53% 30.51 in 10.0 mi NW 9.2 mph - N/A   Mostly Cloudy
3:35 PM 9.5 °F -1.5 °F -4.4 °F 54% 30.51 in 10.0 mi WNW 6.9 mph - N/A   Overcast
3:55 PM 9.7 °F -1.3 °F -4.4 °F 53% 30.52 in 10.0 mi NW 6.9 mph - N/A   Scattered Clouds
4:15 PM 9.5 °F -0.3 °F -4.4 °F 54% 30.52 in 10.0 mi WNW 5.8 mph - N/A   Clear
4:35 PM 9.1 °F -1.9 °F -4.2 °F 55% 30.52 in 10.0 mi NW 6.9 mph - N/A   Clear
4:55 PM 8.2 °F -1.8 °F -4.0 °F 58% 30.52 in 10.0 mi WNW 5.8 mph - N/A   Clear
5:15 PM 7.7 °F -0.9 °F -4.0 °F 59% 30.52 in 10.0 mi WNW 4.6 mph - N/A   Mostly Cloudy
5:35 PM 7.7 °F -3.7 °F -4.0 °F 59% 30.52 in 10.0 mi WNW 6.9 mph - N/A   Overcast
5:55 PM 7.0 °F -3.3 °F -4.0 °F 61% 30.52 in 10.0 mi WNW 5.8 mph - N/A   Overcast
6:15 PM 6.8 °F -3.5 °F -4.0 °F 61% 30.52 in 10.0 mi WNW 5.8 mph - N/A   Overcast
6:35 PM 6.4 °F -5.2 °F -4.0 °F 62% 30.52 in 10.0 mi West 6.9 mph - N/A   Overcast
6:55 PM 6.3 °F -0.7 °F -4.2 °F 62% 30.52 in 10.0 mi NW 3.5 mph - N/A   Overcast
7:15 PM 5.9 °F - -4.2 °F 63% 30.50 in 10.0 mi Calm Calm - N/A   Overcast
7:35 PM 4.3 °F - -5.1 °F 65% 30.50 in 10.0 mi Calm Calm - N/A   Scattered Clouds
7:55 PM 4.5 °F - -3.6 °F 69% 30.50 in 10.0 mi Calm Calm - N/A   Clear
8:15 PM 2.8 °F - -4.0 °F 73% 30.50 in 10.0 mi Calm Calm - N/A   Clear
8:35 PM 1.4 °F - -5.3 °F 74% 30.49 in 10.0 mi Calm Calm - N/A   Clear
8:55 PM -0.8 °F - -6.7 °F 76% 30.50 in 10.0 mi Calm Calm - N/A   Clear
9:15 PM -1.8 °F - -6.7 °F 80% 30.50 in 10.0 mi Calm Calm - N/A   Clear
9:35 PM -0.2 °F - -5.3 °F 79% 30.49 in 10.0 mi Calm Calm - N/A   Clear
9:55 PM -0.4 °F - -5.4 °F 79% 30.50 in 10.0 mi Calm Calm - N/A   Clear
10:15 PM -4.2 °F - -9.6 °F 78% 30.51 in 10.0 mi Calm Calm - N/A   Clear
10:35 PM -4.5 °F - -9.8 °F 78% 30.50 in 10.0 mi Calm Calm - N/A   Clear
10:55 PM -3.6 °F - -8.9 °F 78% 30.49 in 10.0 mi Calm Calm - N/A   Clear
11:15 PM -6.7 °F - -11.0 °F 81% 30.49 in 10.0 mi Calm Calm - N/A   Clear
11:35 PM -6.2 °F - -10.7 °F 81% 30.50 in 10.0 mi Calm Calm - N/A   Clear
11:55 PM -5.8 °F - -10.3 °F 81% 30.49 in 10.0 mi Calm Calm - N/A   Clear